EW6020 Weather Reports


time (UTC)temp
C
wind
direction
speed
KPH
gust
KPH
rain 1hr
cm
rain 24hr
cm
rain mn
cm
humidity
%
barometer
mb
20260507064545 11 176 3.2 19.3 0.00 0.00 0.00 81 1019.3
20260507063041 12 178 3.2 12.9 0.00 0.00 0.00 81 1019.4
20260507061539 12 179 4.8 16.1 0.00 0.00 0.00 81 1019.4
20260507060038 12 178 3.2 16.1 0.00 0.00 0.00 81 1019.3
20260507054541 12 152 3.2 14.5 0.00 0.00 0.00 80 1019.3
20260507053042 12 178 3.2 11.3 0.00 0.00 0.00 79 1019.2
20260507051535 13 157 3.2 11.3 0.00 0.00 0.00 79 1019.2
20260507050034 13 179 1.6 14.5 0.00 0.00 0.00 78 1019.2
20260507044534 13 175 3.2 19.3 0.00 0.00 0.00 78 1019.2
20260507043036 13 172 4.8 22.5 0.00 0.00 0.00 77 1019.1
20260507041531 13 178 11.3 22.5 0.00 0.00 0.00 76 1018.9
20260507040030 14 178 9.7 22.5 0.00 0.00 0.00 75 1018.8
20260507034531 15 176 9.7 19.3 0.00 0.00 0.00 76 1018.5
20260507033028 15 160 9.7 22.5 0.00 0.00 0.00 75 1018.3
20260507031527 16 154 4.8 17.7 0.00 0.00 0.00 76 1018.1
20260507030030 16 162 6.4 12.9 0.00 0.00 0.00 74 1017.9
20260507024526 17 178 1.6 14.5 0.00 0.00 0.00 74 1017.7
20260507023029 17 179 0.0 4.8 0.00 0.00 0.00 74 1017.6
20260507021525 17 177 3.2 14.5 0.00 0.00 0.00 73 1017.5
20260507020025 18 179 1.6 9.7 0.00 0.00 0.00 73 1017.6
20260507014524 18 178 0.0 14.5 0.00 0.00 0.00 73 1017.6
20260507013034 18 179 4.8 14.5 0.00 0.00 0.00 72 1017.7
20260507011534 18 150 4.8 12.9 0.00 0.00 0.00 70 1017.7
20260507010022 19 179 1.6 11.3 0.00 0.00 0.00 72 1017.6
20260507004521 20 178 9.7 17.7 0.00 0.00 0.00 68 1017.5
20260507003020 20 163 4.8 9.7 0.00 0.00 0.00 66 1017.5
20260507001519 21 177 3.2 8.0 0.00 0.00 0.00 61 1017.5
20260507000018 22 178 3.2 9.7 0.00 0.00 0.00 60 1017.5
20260506234515 21 179 0.0 14.5 0.00 0.00 0.00 61 1017.5
20260506233014 21 176 4.8 11.3 0.00 0.00 0.00 61 1017.5
20260506231510 20 181 4.8 14.5 0.00 0.00 0.00 67 1017.6
20260506230009 20 177 1.6 14.5 0.00 0.00 0.00 64 1017.8
20260506224512 20 179 8.0 11.3 0.00 0.00 0.00 67 1017.9
20260506223007 20 149 4.8 14.5 0.00 0.00 0.00 69 1018.0
20260506221506 20 174 9.7 12.9 0.00 0.00 0.00 69 1018.1
20260506220006 20 176 6.4 14.5 0.00 0.00 0.00 69 1018.2
20260506214505 20 149 4.8 19.3 0.00 0.00 0.00 67 1018.0
20260506213003 19 150 4.8 19.3 0.00 0.00 0.00 70 1018.1
20260506211502 19 154 11.3 17.7 0.00 0.00 0.00 68 1018.3
20260506210121 19 150 6.4 12.9 0.00 0.00 0.00 69 1018.5
20260506204559 18 179 1.6 16.1 0.00 0.00 0.00 69 1018.5
20260506203142 18 177 6.4 19.3 0.00 0.00 0.00 71 1018.5
20260506201555 18 167 11.3 17.7 0.00 0.00 0.00 71 1018.4
20260506200054 17 166 16.1 24.1 0.00 0.00 0.00 75 1018.6
20260506194554 17 150 14.5 29.0 0.00 0.00 0.00 74 1018.7
20260506193052 17 179 9.7 22.5 0.00 0.00 0.00 73 1018.9
20260506191553 17 179 4.8 19.3 0.00 0.00 0.00 75 1018.9
20260506190050 16 176 4.8 19.3 0.00 0.00 0.00 77 1018.9
20260506184555 16 179 11.3 19.3 0.00 0.00 0.00 76 1018.7
20260506183045 16 150 11.3 22.5 0.00 0.00 0.00 78 1018.7
20260506181543 16 168 11.3 17.7 0.00 0.00 0.00 80 1018.7
20260506180042 15 172 1.6 12.9 0.00 0.00 0.00 82 1019.0
20260506174539 15 178 3.2 8.0 0.00 0.00 0.00 82 1019.0
20260506173047 15 172 3.2 9.7 0.00 0.00 0.00 84 1018.8
20260506171536 14 179 8.0 16.1 0.00 0.00 0.00 84 1018.7
20260506170032 13 178 8.0 16.1 0.00 0.00 0.00 86 1018.7
20260506164531 13 179 9.7 12.9 0.00 0.00 0.00 87 1018.9
20260506163052 13 176 4.8 9.7 0.00 0.00 0.00 85 1019.0
20260506161530 13 177 0.0 3.2 0.00 0.00 0.00 86 1018.9
20260506160029 13 149 0.0 4.8 0.00 0.00 0.00 87 1018.8
20260506154535 12 179 3.2 14.5 0.00 0.00 0.00 88 1018.6
20260506153029 12 179 11.3 16.1 0.00 0.00 0.00 88 1018.3
20260506151533 12 179 6.4 9.7 0.00 0.00 0.00 90 1018.4
20260506150025 11 163 0.0 6.4 0.00 0.00 0.00 90 1018.8
20260506144523 11 149 0.0 3.2 0.00 0.00 0.00 91 1018.9
20260506143026 11 149 0.0 4.8 0.00 0.00 0.00 91 1018.8
20260506141520 11 150 0.0 1.6 0.00 0.00 0.00 91 1018.4
20260506140025 11 149 0.0 3.2 0.00 0.00 0.00 92 1017.9
20260506134514 -17 0.0 0.0 0.00 0.00 0.00 1017.7
20260506133010 -17 0.0 0.0 0.00 0.00 0.00 1017.7
20260506131508 -17 0.0 0.0 0.00 0.00 0.00 1017.7
20260506130001 -17 0.0 0.0 0.00 0.00 0.00 1017.5
20260506124558 -17 0.0 0.0 0.00 0.00 0.00 1017.2
20260506123110 11 224 8.0 11.3 0.00 0.00 0.00 91 1017.1
20260506121605 11 179 9.7 12.9 0.00 0.00 0.00 91 1017.1
20260506120048 12 179 4.8 6.4 0.00 0.00 0.00 91 1017.2
20260506114545 12 152 4.8 6.4 0.00 0.00 0.00 91 1017.1
20260506113042 12 153 0.0 1.6 0.00 0.00 0.00 90 1017.0
20260506111542 12 153 0.0 0.0 0.00 0.00 0.00 90 1016.9
20260506110042 12 153 0.0 0.0 0.00 0.00 0.00 90 1016.7
20260506104537 12 153 0.0 0.0 0.00 0.00 0.00 90 1016.5
20260506103035 12 153 0.0 0.0 0.00 0.00 0.00 89 1016.3
20260506101534 12 153 0.0 3.2 0.00 0.00 0.00 90 1016.1
20260506100036 12 153 1.6 3.2 0.00 0.00 0.00 90 1016.0
20260506094530 12 153 0.0 0.0 0.00 0.00 0.00 90 1015.9
20260506093029 12 153 0.0 1.6 0.00 0.00 0.00 89 1015.8
20260506091527 12 153 0.0 0.0 0.00 0.00 0.00 89 1015.8
20260506090027 12 153 0.0 1.6 0.00 0.00 0.00 89 1015.8
20260506084534 12 153 0.0 3.2 0.00 0.00 0.00 89 1015.7
20260506083030 12 153 0.0 3.2 0.00 0.00 0.00 89 1015.6
20260506081522 12 153 3.2 4.8 0.00 0.00 0.00 88 1015.7
20260506073016 13 149 3.2 4.8 0.00 0.00 0.00 87 1015.4
20260506071513 13 179 3.2 8.0 0.00 0.00 0.00 87 1015.2